Regional Weather Roundup
Issued by NWS

Home | Current Version | Previous Version | Graphics & Text | Print | Product List | Glossary Off
Versions: 1 2 3 4 5 6 7 8 9 10 11 12 13 14 15 16 17 18 19 20 21 22 23 24 25 26 27 28 29 30 31 32 33 34 35 36 37 38 39 40 41 42 43 44 45 46 47 48 49 50

000
ASUS44 KFWD 200303
RWRTX
NORTH TEXAS HOURLY WEATHER ROUNDUP
NATIONAL WEATHER SERVICE FORT WORTH TX
900 PM CST FRI DEC 19 2014

NOTE: "FAIR" INDICATES FEW OR NO CLOUDS BELOW 12,000 FEET WITH NO
SIGNIFICANT WEATHER AND/OR OBSTRUCTIONS TO VISIBILITY.

TXZ118-119-200400-
DALLAS/FORT WORTH METROPLEX

CITY           SKY/WX    TMP DP  RH WIND       PRES   REMARKS
DFW AIRPORT    CLOUDY    47  44  90 N8        30.20R
DALLAS LOVE    CLOUDY    48  44  86 N6        30.21R
FTW MEACHAM    CLOUDY    47  43  86 N9        30.21R FOG
DAL-EXECUTIVE  CLOUDY    50  44  80 N7        30.19R
FTW-ALLIANCE   DRIZZLE   46  43  89 N9        30.21R
ARLINGTON      CLOUDY    49  43  80 N7        30.21R
GRAND PRAIRIE  CLOUDY    48  46  93 N7        30.22R
ADDISON        CLOUDY    48  43  81 N7        30.21R FOG
MESQUITE       CLOUDY    47  46  93 N7        30.21R
LANCASTER      CLOUDY    47  44  87 N6        30.21R
$$

TXZ091>094-102>105-117-120-121-131>134-200400-
NORTH CENTRAL TEXAS

CITY           SKY/WX    TMP DP  RH WIND       PRES   REMARKS
SHRMAN/DENISON CLOUDY    45  44  98 CALM      30.23R
BRIDGEPORT     CLOUDY    46  43  89 N3        30.24R
DENTON         CLOUDY    46  42  86 N8        30.22R
MCKINNEY       CLOUDY    47  44  90 N5        30.21S
ROCKWALL       CLOUDY    47  46  94 N6        30.19R
TERRELL        CLOUDY    49  45  86 NE7       30.20R
WAXAHACHIE     CLOUDY    47  47  99 N6        30.21R FOG
CLEBURNE       CLOUDY    46  46 100 N7        30.22R
GRANBURY       CLOUDY    49  45  86 CALM      30.22S
$$

TXZ083>090-098>101-113>116-127>130-139>142-154-155-200400-
WESTERN NORTH TEXAS

CITY           SKY/WX    TMP DP  RH WIND       PRES   REMARKS
WICHITA FALLS  CLOUDY    44  40  85 NE5       30.22R
WF-KICKAPOO    CLOUDY    45  41  86 NE5       30.24R
VERNON         CLOUDY    45  39  79 CALM      30.23S
ABILENE        CLOUDY    44  42  93 N5        30.20F
ABILENE-DYESS  CLOUDY    45  37  76 NE5       30.19S
BRECKENRIDGE   CLOUDY    47  42  81 NE6       30.21S
MINERAL WELLS  CLOUDY    46  41  82 N8        30.20R
STEPHENVILLE   CLOUDY    46  42  85 N5        30.22R
COMANCHE       CLOUDY    46  46  98 N5        30.20R
COLEMAN        CLOUDY    47  43  87 N6        30.19R
BRADY          CLOUDY    48  43  81 E3        30.17R
$$

TXZ143>147-156>162-174-175-200400-
CENTRAL TEXAS

CITY           SKY/WX    TMP DP  RH WIND       PRES   REMARKS
WACO           CLOUDY    48  46  93 N7        30.19R
WACO-TSTC      CLOUDY    48  46  93 N6        30.20R
WACO-MCGREGOR  CLOUDY    48  43  81 NW9       30.20S
CORSICANA      CLOUDY    49  46  90 N3        30.20R FOG
MEXIA          CLOUDY    47  46  94 N8        30.17R
HEARNE         CLOUDY    48  46  93 N12       30.18S
TEMPLE         CLOUDY    48  43  81 NW10      30.17F
KILLEEN        FOG       45  45  99 N9        30.19F VSB 3/4
KILLEEN-SKYLRK CLOUDY    46  39  76 N8        30.15F
FORT HOOD      CLOUDY    47  46  98 N9        30.18F FOG
GATESVILLE     MOCLDY    46  46 100 CALM      30.22S
HAMILTON       CLOUDY    47  47 100 NE5       30.20R
$$

TXZ095>097-106>112-122>126-135>138-148>153-164>167-200400-
EAST TEXAS

CITY           SKY/WX    TMP DP  RH WIND       PRES   REMARKS
PARIS          CLOUDY    45  41  87 E5        30.22R
SULPHUR SPRNGS CLOUDY    46  44  93 NE3       30.22R
MINEOLA        CLOUDY    46  45  93 CALM      30.20S FOG
TYLER          CLOUDY    47  45  93 NE7       30.18R FOG
LONGVIEW       CLOUDY    48  44  86 NE6       30.18R
MARSHALL       CLOUDY    48  46  91 CALM      30.20R
PALESTINE      CLOUDY    48  48 100 N5        30.19R FOG
JACKSONVILLE   CLOUDY    48  47  98 NE7       30.17S FOG
HENDERSON      CLOUDY    47  46  98 NE6       30.19R
NACOGDOCHES    CLOUDY    46  45  93 NE6       30.17R
LUFKIN         CLOUDY    51  47  86 N7        30.15R
$$

SUPPLEMENTAL OBSERVATIONS (CENTRAL)

CITY           SKY/WX    TMP DP  RH WIND       PRES   REMARKS
$$

SUPPLEMENTAL OBSERVATIONS (WEST)

CITY           SKY/WX    TMP DP  RH WIND       PRES   REMARKS
$$

SUPPLEMENTAL OBSERVATIONS (EAST)

CITY           SKY/WX    TMP DP  RH WIND       PRES   REMARKS
$$

SUPPLEMENTAL OBSERVATIONS ARE A COLLECTION OF AUTOMATED INSTRUMENTS
THAT ARE MAINTAINED BY A VARIETY OF FEDERAL AND STATE AGENCIES.
CERTAIN ELEMENTS...SUCH AS HUMIDITY VALUES AND SUSTAINED WIND
SPEEDS...MAY BE APPROXIMATED.




USA.gov is the U.S. government's official web portal to all federal, state and local government web resources and services.